Year,Month,Day,Hour,Minute,Value (Times are PST for temperature in C)
2014,12,19,00,00,8.40
2014,12,19,00,01,8.40
2014,12,19,00,02,8.40
2014,12,19,00,03,8.40
2014,12,19,00,04,8.40
2014,12,19,00,05,8.40
2014,12,19,00,06,8.40
2014,12,19,00,07,8.40
2014,12,19,00,08,8.30
2014,12,19,00,09,8.40
2014,12,19,00,10,8.40
2014,12,19,00,11,8.40
2014,12,19,00,12,8.40
2014,12,19,00,13,8.40
2014,12,19,00,14,8.40
2014,12,19,00,15,8.40
2014,12,19,00,16,8.40
2014,12,19,00,17,8.40
2014,12,19,00,18,8.40
2014,12,19,00,19,8.30
2014,12,19,00,20,8.30
2014,12,19,00,21,8.30
2014,12,19,00,22,8.30
2014,12,19,00,23,8.30
2014,12,19,00,24,8.30
2014,12,19,00,25,8.30
2014,12,19,00,26,8.20
2014,12,19,00,27,8.30
2014,12,19,00,28,8.30
2014,12,19,00,29,8.30
2014,12,19,00,30,8.30
2014,12,19,00,31,8.30
2014,12,19,00,32,8.30
2014,12,19,00,33,8.30
2014,12,19,00,34,8.30
2014,12,19,00,35,8.30
2014,12,19,00,36,8.30
2014,12,19,00,37,8.30
2014,12,19,00,38,8.30
2014,12,19,00,39,8.30
2014,12,19,00,40,8.30
2014,12,19,00,41,8.30
2014,12,19,00,42,8.30
2014,12,19,00,43,8.30
2014,12,19,00,44,8.30
2014,12,19,00,45,8.30
2014,12,19,00,46,8.30
2014,12,19,00,47,8.30
2014,12,19,00,48,8.30
2014,12,19,00,49,8.30
2014,12,19,00,50,8.30
2014,12,19,00,51,8.20
2014,12,19,00,52,8.20
2014,12,19,00,53,8.20
2014,12,19,00,54,8.20
2014,12,19,00,55,8.20
2014,12,19,00,56,8.20
2014,12,19,00,57,8.20
2014,12,19,00,58,8.30
2014,12,19,00,59,8.20
2014,12,19,01,00,8.30
2014,12,19,01,01,8.30
2014,12,19,01,02,8.20
2014,12,19,01,03,8.20
2014,12,19,01,04,8.20
2014,12,19,01,05,8.20
2014,12,19,01,06,8.20
2014,12,19,01,07,8.20
2014,12,19,01,08,8.20
2014,12,19,01,09,8.20
2014,12,19,01,10,8.20
2014,12,19,01,11,8.30
2014,12,19,01,12,8.30
2014,12,19,01,13,8.30
2014,12,19,01,14,8.30
2014,12,19,01,15,8.30
2014,12,19,01,16,8.30
2014,12,19,01,17,8.30
2014,12,19,01,18,8.30
2014,12,19,01,19,8.30
2014,12,19,01,20,8.30
2014,12,19,01,21,8.30
2014,12,19,01,22,8.30
2014,12,19,01,23,8.30
2014,12,19,01,24,8.20
2014,12,19,01,25,8.20
2014,12,19,01,26,8.20
2014,12,19,01,27,8.20
2014,12,19,01,28,8.20
2014,12,19,01,29,8.20
2014,12,19,01,30,8.20
2014,12,19,01,31,8.20
2014,12,19,01,32,8.20
2014,12,19,01,33,8.20
2014,12,19,01,34,8.20
2014,12,19,01,35,8.20
2014,12,19,01,36,8.20
2014,12,19,01,37,8.20
2014,12,19,01,38,8.20
2014,12,19,01,39,8.20
2014,12,19,01,40,8.10
2014,12,19,01,41,8.10
2014,12,19,01,42,8.10
2014,12,19,01,43,8.10
2014,12,19,01,44,8.10
2014,12,19,01,45,8.10
2014,12,19,01,46,8.10
2014,12,19,01,47,8.10
2014,12,19,01,48,8.10
2014,12,19,01,49,8.10
2014,12,19,01,50,8.10
2014,12,19,01,51,8.10
2014,12,19,01,52,8.10
2014,12,19,01,53,8.10
2014,12,19,01,54,8.00
2014,12,19,01,55,8.00
2014,12,19,01,56,8.00
2014,12,19,01,57,8.00
2014,12,19,01,58,8.00
2014,12,19,01,59,7.90
2014,12,19,02,00,7.90
2014,12,19,02,01,7.90
2014,12,19,02,02,7.90
2014,12,19,02,03,7.90
2014,12,19,02,04,8.00
2014,12,19,02,05,8.00
2014,12,19,02,06,8.00
2014,12,19,02,07,8.00
2014,12,19,02,08,8.10
2014,12,19,02,09,8.10
2014,12,19,02,10,8.10
2014,12,19,02,11,8.10
2014,12,19,02,12,8.10
2014,12,19,02,13,8.10
2014,12,19,02,14,8.10
2014,12,19,02,15,8.10
2014,12,19,02,16,8.10
2014,12,19,02,17,8.10
2014,12,19,02,18,8.10
2014,12,19,02,19,8.00
2014,12,19,02,20,8.00
2014,12,19,02,21,8.00
2014,12,19,02,22,8.00
2014,12,19,02,23,8.00
2014,12,19,02,24,7.90
2014,12,19,02,25,7.90
2014,12,19,02,26,7.90
2014,12,19,02,27,7.90
2014,12,19,02,28,7.90
2014,12,19,02,29,7.90
2014,12,19,02,30,7.90
2014,12,19,02,31,7.90
2014,12,19,02,32,7.90
2014,12,19,02,33,7.90
2014,12,19,02,34,7.90
2014,12,19,02,35,7.90
2014,12,19,02,36,7.90
2014,12,19,02,37,7.90
2014,12,19,02,38,7.90
2014,12,19,02,39,7.90
2014,12,19,02,40,7.90
2014,12,19,02,41,7.90
2014,12,19,02,42,7.90
2014,12,19,02,43,7.90
2014,12,19,02,44,8.00
2014,12,19,02,45,8.00
2014,12,19,02,46,8.00
2014,12,19,02,47,8.00
2014,12,19,02,48,8.00
2014,12,19,02,49,8.00
2014,12,19,02,50,8.10
2014,12,19,02,51,8.10
2014,12,19,02,52,8.10
2014,12,19,02,53,8.10
2014,12,19,02,54,8.10
2014,12,19,02,55,8.10
2014,12,19,02,56,8.20
2014,12,19,02,57,8.20
2014,12,19,02,58,8.20
2014,12,19,02,59,8.20
2014,12,19,03,00,8.20
2014,12,19,03,01,8.20
2014,12,19,03,02,8.20
2014,12,19,03,03,8.20
2014,12,19,03,04,8.20
2014,12,19,03,05,8.20
2014,12,19,03,06,8.20
2014,12,19,03,07,8.20
2014,12,19,03,08,8.20
2014,12,19,03,09,8.20
2014,12,19,03,10,8.20
2014,12,19,03,11,8.20
2014,12,19,03,12,8.10
2014,12,19,03,13,8.10
2014,12,19,03,14,8.10
2014,12,19,03,15,8.10
2014,12,19,03,16,8.10
2014,12,19,03,17,8.10
2014,12,19,03,18,8.10
2014,12,19,03,19,8.10
2014,12,19,03,20,8.10
2014,12,19,03,21,8.10
2014,12,19,03,22,8.10
2014,12,19,03,23,8.20
2014,12,19,03,24,8.20
2014,12,19,03,25,8.20
2014,12,19,03,26,8.20
2014,12,19,03,27,8.20
2014,12,19,03,28,8.20
2014,12,19,03,29,8.20
2014,12,19,03,30,8.20
2014,12,19,03,31,8.20
2014,12,19,03,32,8.30
2014,12,19,03,33,8.30
2014,12,19,03,34,8.30
2014,12,19,03,35,8.30
2014,12,19,03,36,8.30
2014,12,19,03,37,8.20
2014,12,19,03,38,8.30
2014,12,19,03,39,8.30
2014,12,19,03,40,8.30
2014,12,19,03,41,8.30
2014,12,19,03,42,8.30
2014,12,19,03,43,8.30
2014,12,19,03,44,8.30
2014,12,19,03,45,8.30
2014,12,19,03,46,8.30
2014,12,19,03,47,8.20
2014,12,19,03,48,8.20
2014,12,19,03,49,8.20
2014,12,19,03,50,8.20
2014,12,19,03,51,8.20
2014,12,19,03,52,8.10
2014,12,19,03,53,8.10
2014,12,19,03,54,8.10
2014,12,19,03,55,8.20
2014,12,19,03,56,8.20
2014,12,19,03,57,8.20
2014,12,19,03,58,8.10
2014,12,19,03,59,8.10
2014,12,19,04,00,8.10
2014,12,19,04,01,8.10
2014,12,19,04,02,8.10
2014,12,19,04,03,8.10
2014,12,19,04,04,8.10
2014,12,19,04,05,8.10
2014,12,19,04,06,8.20
2014,12,19,04,07,8.20
2014,12,19,04,08,8.20
2014,12,19,04,09,8.20
2014,12,19,04,10,8.20
2014,12,19,04,11,8.20
2014,12,19,04,12,8.20
2014,12,19,04,13,8.30
2014,12,19,04,14,8.30
2014,12,19,04,15,8.30
2014,12,19,04,16,8.30
2014,12,19,04,17,8.30
2014,12,19,04,18,8.30
2014,12,19,04,19,8.30
2014,12,19,04,20,8.20
2014,12,19,04,21,8.20
2014,12,19,04,22,8.20
2014,12,19,04,23,8.20
2014,12,19,04,24,8.20
2014,12,19,04,25,8.20
2014,12,19,04,26,8.20
2014,12,19,04,27,8.20
2014,12,19,04,28,8.20
2014,12,19,04,29,8.20
2014,12,19,04,30,8.20
2014,12,19,04,31,8.20
2014,12,19,04,32,8.20
2014,12,19,04,33,8.20
2014,12,19,04,34,8.20
2014,12,19,04,35,8.10
2014,12,19,04,36,8.10
2014,12,19,04,37,8.10
2014,12,19,04,38,8.10
2014,12,19,04,39,8.10
2014,12,19,04,40,8.10
2014,12,19,04,41,8.20
2014,12,19,04,42,8.20
2014,12,19,04,43,8.20
2014,12,19,04,44,8.20
2014,12,19,04,45,8.20
2014,12,19,04,46,8.20
2014,12,19,04,47,8.20
2014,12,19,04,48,8.20
2014,12,19,04,49,8.20
2014,12,19,04,50,8.20
2014,12,19,04,51,8.20
2014,12,19,04,52,8.20
2014,12,19,04,53,8.20
2014,12,19,04,54,8.20
2014,12,19,04,55,8.20
2014,12,19,04,56,8.20
2014,12,19,04,57,8.30
2014,12,19,04,58,8.30
2014,12,19,04,59,8.30
2014,12,19,05,00,8.30
2014,12,19,05,01,8.30
2014,12,19,05,02,8.30
2014,12,19,05,03,8.30
2014,12,19,05,04,8.30
2014,12,19,05,05,8.30
2014,12,19,05,06,8.30
2014,12,19,05,07,8.30
2014,12,19,05,08,8.30
2014,12,19,05,09,8.30
2014,12,19,05,10,8.30
2014,12,19,05,11,8.30
2014,12,19,05,12,8.30
2014,12,19,05,13,8.20
2014,12,19,05,14,8.20
2014,12,19,05,15,8.30
2014,12,19,05,16,8.30
2014,12,19,05,17,8.30
2014,12,19,05,18,8.30
2014,12,19,05,19,8.30
2014,12,19,05,20,8.20
2014,12,19,05,21,8.20
2014,12,19,05,22,8.20
2014,12,19,05,23,8.20
2014,12,19,05,24,8.20
2014,12,19,05,25,8.20
2014,12,19,05,26,8.20
2014,12,19,05,27,8.20
2014,12,19,05,28,8.20
2014,12,19,05,29,8.20
2014,12,19,05,30,8.20
2014,12,19,05,31,8.20
2014,12,19,05,32,8.20
2014,12,19,05,33,8.20
2014,12,19,05,34,8.20
2014,12,19,05,35,8.30
2014,12,19,05,36,8.30
2014,12,19,05,37,8.30
2014,12,19,05,38,8.40
2014,12,19,05,39,8.40
2014,12,19,05,40,8.40
2014,12,19,05,41,8.40
2014,12,19,05,42,8.40
2014,12,19,05,43,8.40
2014,12,19,05,44,8.40
2014,12,19,05,45,8.40
2014,12,19,05,46,8.40
2014,12,19,05,47,8.40
2014,12,19,05,48,8.30
2014,12,19,05,49,8.30
2014,12,19,05,50,8.30
2014,12,19,05,51,8.30
2014,12,19,05,52,8.30
2014,12,19,05,53,8.30
2014,12,19,05,54,8.30
2014,12,19,05,55,8.30
2014,12,19,05,56,8.30
2014,12,19,05,57,8.30
2014,12,19,05,58,8.30
2014,12,19,05,59,8.30
2014,12,19,06,00,8.30
2014,12,19,06,01,8.30
2014,12,19,06,02,8.30
2014,12,19,06,03,8.30
2014,12,19,06,04,8.40
2014,12,19,06,05,8.40
2014,12,19,06,06,8.40
2014,12,19,06,07,8.40
2014,12,19,06,08,8.30
2014,12,19,06,09,8.30
2014,12,19,06,10,8.30
2014,12,19,06,11,8.30
2014,12,19,06,12,8.30
2014,12,19,06,13,8.30
2014,12,19,06,14,8.30
2014,12,19,06,15,8.30
2014,12,19,06,16,8.30
2014,12,19,06,17,8.30
2014,12,19,06,18,8.20
2014,12,19,06,19,8.20
2014,12,19,06,20,8.20
2014,12,19,06,21,8.20
2014,12,19,06,22,8.20
2014,12,19,06,23,8.20
2014,12,19,06,24,8.20
2014,12,19,06,25,8.20
2014,12,19,06,26,8.20
2014,12,19,06,27,8.20
2014,12,19,06,28,8.20
2014,12,19,06,29,8.20
2014,12,19,06,30,8.20
2014,12,19,06,31,8.20
2014,12,19,06,32,8.20
2014,12,19,06,33,8.20
2014,12,19,06,34,8.20
2014,12,19,06,35,8.20
2014,12,19,06,36,8.20
2014,12,19,06,37,8.20
2014,12,19,06,38,8.20
2014,12,19,06,39,8.20
2014,12,19,06,40,8.20
2014,12,19,06,41,8.20
2014,12,19,06,42,8.20
2014,12,19,06,43,8.20
2014,12,19,06,44,8.20
2014,12,19,06,45,8.20
2014,12,19,06,46,8.10
2014,12,19,06,47,8.10
2014,12,19,06,48,8.10
2014,12,19,06,49,8.10
2014,12,19,06,50,8.10
2014,12,19,06,51,8.10
2014,12,19,06,52,8.10
2014,12,19,06,53,8.10
2014,12,19,06,54,8.10
2014,12,19,06,55,8.10
2014,12,19,06,56,8.00
2014,12,19,06,57,8.00
2014,12,19,06,58,8.00
2014,12,19,06,59,8.00
2014,12,19,07,00,8.00
2014,12,19,07,01,8.00
2014,12,19,07,02,8.00
2014,12,19,07,03,8.00
2014,12,19,07,04,7.90
2014,12,19,07,05,7.90
2014,12,19,07,06,7.90
2014,12,19,07,07,7.90
2014,12,19,07,08,7.90
2014,12,19,07,09,7.90
2014,12,19,07,10,7.90
2014,12,19,07,11,7.80
2014,12,19,07,12,7.80
2014,12,19,07,13,7.80
2014,12,19,07,14,7.80
2014,12,19,07,15,7.80
2014,12,19,07,16,7.80
2014,12,19,07,17,7.80
2014,12,19,07,18,7.80
2014,12,19,07,19,7.70
2014,12,19,07,20,7.70
2014,12,19,07,21,7.70
2014,12,19,07,22,7.70
2014,12,19,07,23,7.70
2014,12,19,07,24,7.70
2014,12,19,07,25,7.80
2014,12,19,07,26,7.80
2014,12,19,07,27,7.80
2014,12,19,07,28,7.80
2014,12,19,07,29,7.80
2014,12,19,07,30,7.80
2014,12,19,07,31,7.80
2014,12,19,07,32,7.80
2014,12,19,07,33,7.80
2014,12,19,07,34,7.80
2014,12,19,07,35,7.80
2014,12,19,07,36,7.70
2014,12,19,07,37,7.70
2014,12,19,07,38,7.70
2014,12,19,07,39,7.70
2014,12,19,07,40,7.70
2014,12,19,07,41,7.70
2014,12,19,07,42,7.70
2014,12,19,07,43,7.70
2014,12,19,07,44,7.70
2014,12,19,07,45,7.70
2014,12,19,07,46,7.70
2014,12,19,07,47,7.70
2014,12,19,07,48,7.70
2014,12,19,07,49,7.70
2014,12,19,07,50,7.70
2014,12,19,07,51,7.70
2014,12,19,07,52,7.70
2014,12,19,07,53,7.70
2014,12,19,07,54,7.70
2014,12,19,07,55,7.70
2014,12,19,07,56,7.70
2014,12,19,07,57,7.70
2014,12,19,07,58,7.70
2014,12,19,07,59,7.70
2014,12,19,08,00,7.70
2014,12,19,08,01,7.70
2014,12,19,08,02,7.70
2014,12,19,08,03,7.70
2014,12,19,08,04,7.70
2014,12,19,08,05,7.70
2014,12,19,08,06,7.70
2014,12,19,08,07,7.70
2014,12,19,08,08,7.70
2014,12,19,08,09,7.70
2014,12,19,08,10,7.70
2014,12,19,08,11,7.70
2014,12,19,08,12,7.70
2014,12,19,08,13,7.70
2014,12,19,08,14,7.70
2014,12,19,08,15,7.70
2014,12,19,08,16,7.70
2014,12,19,08,17,7.70
2014,12,19,08,18,7.70
2014,12,19,08,19,7.70
2014,12,19,08,20,7.70
2014,12,19,08,21,7.70
2014,12,19,08,22,7.70
2014,12,19,08,23,7.70
2014,12,19,08,24,7.70
2014,12,19,08,25,7.70
2014,12,19,08,26,7.80
2014,12,19,08,27,7.80
2014,12,19,08,28,7.80
2014,12,19,08,29,7.80
2014,12,19,08,30,7.80
2014,12,19,08,31,7.80
2014,12,19,08,32,7.80
2014,12,19,08,33,7.80
2014,12,19,08,34,7.80
2014,12,19,08,35,7.80
2014,12,19,08,36,7.80
2014,12,19,08,37,7.80
2014,12,19,08,38,7.90
2014,12,19,08,39,7.80
2014,12,19,08,40,7.80
2014,12,19,08,41,7.80
2014,12,19,08,42,7.80
2014,12,19,08,43,7.80
2014,12,19,08,44,7.80
2014,12,19,08,45,7.80
2014,12,19,08,46,7.80
2014,12,19,08,47,7.80
2014,12,19,08,48,7.80
2014,12,19,08,49,7.80
2014,12,19,08,50,7.80
2014,12,19,08,51,7.80
2014,12,19,08,52,7.80
2014,12,19,08,53,7.80
2014,12,19,08,54,7.80
2014,12,19,08,55,7.80
2014,12,19,08,56,7.80
2014,12,19,08,57,7.80
2014,12,19,08,58,7.80
2014,12,19,08,59,7.80
2014,12,19,09,00,7.80
2014,12,19,09,01,7.80
2014,12,19,09,02,7.80
2014,12,19,09,03,7.80
2014,12,19,09,04,7.80
2014,12,19,09,05,7.80
2014,12,19,09,06,7.80
2014,12,19,09,07,7.80
2014,12,19,09,08,7.80
2014,12,19,09,09,7.80
2014,12,19,09,10,7.80
2014,12,19,09,11,7.80
2014,12,19,09,12,7.80
2014,12,19,09,13,7.80
2014,12,19,09,14,7.80
2014,12,19,09,15,7.80
2014,12,19,09,16,7.80
2014,12,19,09,17,7.80
2014,12,19,09,18,7.80
2014,12,19,09,19,7.80
2014,12,19,09,20,7.80
2014,12,19,09,21,7.80
2014,12,19,09,22,7.80
2014,12,19,09,23,7.80
2014,12,19,09,24,7.80
2014,12,19,09,25,7.80
2014,12,19,09,26,7.80
2014,12,19,09,27,7.90
2014,12,19,09,28,7.90
2014,12,19,09,29,7.90
2014,12,19,09,30,7.90
2014,12,19,09,31,7.90
2014,12,19,09,32,7.90
2014,12,19,09,33,7.90
2014,12,19,09,34,8.00
2014,12,19,09,35,8.00
2014,12,19,09,36,8.00
2014,12,19,09,37,8.00
2014,12,19,09,38,8.00
2014,12,19,09,39,8.00
2014,12,19,09,40,8.00
2014,12,19,09,41,8.00
2014,12,19,09,42,8.00
2014,12,19,09,43,8.00
2014,12,19,09,44,7.90
2014,12,19,09,45,7.90
2014,12,19,09,46,7.90
2014,12,19,09,47,7.90
2014,12,19,09,48,7.90
2014,12,19,09,49,7.90
2014,12,19,09,50,7.90
2014,12,19,09,51,7.90
2014,12,19,09,52,7.90
2014,12,19,09,53,7.90
2014,12,19,09,54,7.90
2014,12,19,09,55,7.90
2014,12,19,09,56,7.90
2014,12,19,09,57,7.90
2014,12,19,09,58,8.00
2014,12,19,09,59,7.90
2014,12,19,10,00,8.00
2014,12,19,10,01,7.90
2014,12,19,10,02,7.90
2014,12,19,10,03,7.90
2014,12,19,10,04,7.90
2014,12,19,10,05,7.90
2014,12,19,10,06,7.90
2014,12,19,10,07,7.90
2014,12,19,10,08,7.90
2014,12,19,10,09,7.90
2014,12,19,10,10,7.90
2014,12,19,10,11,8.00
2014,12,19,10,12,8.00
2014,12,19,10,13,8.00
2014,12,19,10,14,8.00
2014,12,19,10,15,8.10
2014,12,19,10,16,8.10
2014,12,19,10,17,8.10
2014,12,19,10,18,8.10
2014,12,19,10,19,8.10
2014,12,19,10,20,8.10
2014,12,19,10,21,8.10
2014,12,19,10,22,8.10
2014,12,19,10,23,8.10
2014,12,19,10,24,8.10
2014,12,19,10,25,8.10
2014,12,19,10,26,8.10
2014,12,19,10,27,8.10
2014,12,19,10,28,8.10
2014,12,19,10,29,8.10
2014,12,19,10,30,8.10
2014,12,19,10,31,8.10
2014,12,19,10,32,8.10
2014,12,19,10,33,8.10
2014,12,19,10,34,8.00
2014,12,19,10,35,8.00
2014,12,19,10,36,8.00
2014,12,19,10,37,8.00
2014,12,19,10,38,8.00
2014,12,19,10,39,8.00
2014,12,19,10,40,8.00
2014,12,19,10,41,8.00
2014,12,19,10,42,8.00
2014,12,19,10,43,7.90
2014,12,19,10,44,7.90
2014,12,19,10,45,7.90
2014,12,19,10,46,7.90
2014,12,19,10,47,7.90
2014,12,19,10,48,7.90
2014,12,19,10,49,7.90
2014,12,19,10,50,7.90
2014,12,19,10,51,7.90
2014,12,19,10,52,7.90
2014,12,19,10,53,7.90
2014,12,19,10,54,7.90
2014,12,19,10,55,7.90
2014,12,19,10,56,8.00
2014,12,19,10,57,8.00
2014,12,19,10,58,8.00
2014,12,19,10,59,8.10
2014,12,19,11,00,8.10
2014,12,19,11,01,8.10
2014,12,19,11,02,8.10
2014,12,19,11,03,8.10
2014,12,19,11,04,8.10
2014,12,19,11,05,8.10
2014,12,19,11,06,8.10
2014,12,19,11,07,8.10
2014,12,19,11,08,8.10
2014,12,19,11,09,8.10
2014,12,19,11,10,8.10
2014,12,19,11,11,8.10
2014,12,19,11,12,8.10
2014,12,19,11,13,8.10
2014,12,19,11,14,8.10
2014,12,19,11,15,8.10
2014,12,19,11,16,8.10
2014,12,19,11,17,8.10
2014,12,19,11,18,8.10
2014,12,19,11,19,8.10
2014,12,19,11,20,8.10
2014,12,19,11,21,8.10
2014,12,19,11,22,8.10
2014,12,19,11,23,8.10
2014,12,19,11,24,8.10
2014,12,19,11,25,8.10
2014,12,19,11,26,8.10
2014,12,19,11,27,8.10
2014,12,19,11,28,8.10
2014,12,19,11,29,8.10
2014,12,19,11,30,8.10
2014,12,19,11,31,8.10
2014,12,19,11,32,8.10
2014,12,19,11,33,8.10
2014,12,19,11,34,8.10
2014,12,19,11,35,8.20
2014,12,19,11,36,8.20
2014,12,19,11,37,8.20
2014,12,19,11,38,8.20
2014,12,19,11,39,8.20
2014,12,19,11,40,8.20
2014,12,19,11,41,8.20
2014,12,19,11,42,8.20
2014,12,19,11,43,8.20
2014,12,19,11,44,8.30
2014,12,19,11,45,8.30
2014,12,19,11,46,8.30
2014,12,19,11,47,8.30
2014,12,19,11,48,8.30
2014,12,19,11,49,8.30
2014,12,19,11,50,8.30
2014,12,19,11,51,8.30
2014,12,19,11,52,8.30
2014,12,19,11,53,8.30
2014,12,19,11,54,8.40
2014,12,19,11,55,8.40
2014,12,19,11,56,8.40
2014,12,19,11,57,8.50
2014,12,19,11,58,8.50
2014,12,19,11,59,8.50
2014,12,19,12,00,8.60
2014,12,19,12,01,8.60
2014,12,19,12,02,8.60
2014,12,19,12,03,8.60
2014,12,19,12,04,8.60
2014,12,19,12,05,8.60
2014,12,19,12,06,8.70
2014,12,19,12,07,8.60
2014,12,19,12,08,8.60
2014,12,19,12,09,8.60
2014,12,19,12,10,8.60
2014,12,19,12,11,8.60
2014,12,19,12,12,8.50
2014,12,19,12,13,8.50
2014,12,19,12,14,8.50
2014,12,19,12,15,8.40
2014,12,19,12,16,8.40
2014,12,19,12,17,8.30
2014,12,19,12,18,8.30
2014,12,19,12,19,8.30
2014,12,19,12,20,8.30
2014,12,19,12,21,8.20
2014,12,19,12,22,8.20
2014,12,19,12,23,8.20
2014,12,19,12,24,8.20
2014,12,19,12,25,8.10
2014,12,19,12,26,8.10
2014,12,19,12,27,8.10
2014,12,19,12,28,8.10
2014,12,19,12,29,8.10
2014,12,19,12,30,8.00
2014,12,19,12,31,8.00
2014,12,19,12,32,7.90
2014,12,19,12,33,7.90
2014,12,19,12,34,7.90
2014,12,19,12,35,7.90
2014,12,19,12,36,7.90
2014,12,19,12,37,7.90
2014,12,19,12,38,7.90
2014,12,19,12,39,7.90
2014,12,19,12,40,7.80
2014,12,19,12,41,7.80
2014,12,19,12,42,7.80
2014,12,19,12,43,7.80
2014,12,19,12,44,7.80
2014,12,19,12,45,7.80
2014,12,19,12,46,7.80
2014,12,19,12,47,7.80
2014,12,19,12,48,7.80
2014,12,19,12,49,7.80
2014,12,19,12,50,7.80
2014,12,19,12,51,7.80
2014,12,19,12,52,7.80
2014,12,19,12,53,7.80
2014,12,19,12,54,7.80
2014,12,19,12,55,7.80
2014,12,19,12,56,7.80
2014,12,19,12,57,7.80
2014,12,19,12,58,7.80
2014,12,19,12,59,7.70
2014,12,19,13,00,7.70
2014,12,19,13,01,7.70
2014,12,19,13,02,7.70
2014,12,19,13,03,7.70
2014,12,19,13,04,7.60
2014,12,19,13,05,7.60
2014,12,19,13,06,7.60
2014,12,19,13,07,7.60
2014,12,19,13,08,7.60
2014,12,19,13,09,7.60
2014,12,19,13,10,7.60
2014,12,19,13,11,7.60
2014,12,19,13,12,7.60
2014,12,19,13,13,7.60
2014,12,19,13,14,7.60
2014,12,19,13,15,7.60
2014,12,19,13,16,7.60
2014,12,19,13,17,7.60
2014,12,19,13,18,7.60
2014,12,19,13,19,7.60
2014,12,19,13,20,7.60
2014,12,19,13,21,7.60
2014,12,19,13,22,7.60
2014,12,19,13,23,7.60
2014,12,19,13,24,7.70
2014,12,19,13,25,7.70
2014,12,19,13,26,7.70
2014,12,19,13,27,7.70
2014,12,19,13,28,7.70
2014,12,19,13,29,7.70
2014,12,19,13,30,7.70
2014,12,19,13,31,7.70
2014,12,19,13,32,7.70
2014,12,19,13,33,7.70
2014,12,19,13,34,7.80
2014,12,19,13,35,7.80
2014,12,19,13,36,7.80
2014,12,19,13,37,7.80
2014,12,19,13,38,7.80
2014,12,19,13,39,7.80
2014,12,19,13,40,7.90
2014,12,19,13,41,7.90
2014,12,19,13,42,7.90
2014,12,19,13,43,7.90
2014,12,19,13,44,7.90
2014,12,19,13,45,7.90
2014,12,19,13,46,7.90
2014,12,19,13,47,7.90
2014,12,19,13,48,7.80
2014,12,19,13,49,7.80
2014,12,19,13,50,7.80
2014,12,19,13,51,7.80
2014,12,19,13,52,7.80
2014,12,19,13,53,7.80
2014,12,19,13,54,7.70
2014,12,19,13,55,7.70
2014,12,19,13,56,7.70
2014,12,19,13,57,7.70
2014,12,19,13,58,7.70
2014,12,19,13,59,7.70
2014,12,19,14,00,7.70
2014,12,19,14,01,7.70
2014,12,19,14,02,7.80
2014,12,19,14,03,7.80
2014,12,19,14,04,7.80
2014,12,19,14,05,7.80
2014,12,19,14,06,7.80
2014,12,19,14,07,7.80
2014,12,19,14,08,7.80
2014,12,19,14,09,7.80
2014,12,19,14,10,7.80
2014,12,19,14,11,7.80
2014,12,19,14,12,7.80
2014,12,19,14,13,7.80
2014,12,19,14,14,7.80
2014,12,19,14,15,7.80
2014,12,19,14,16,7.80
2014,12,19,14,17,7.80
2014,12,19,14,18,7.80
2014,12,19,14,19,7.80
2014,12,19,14,20,7.80
2014,12,19,14,21,7.80
2014,12,19,14,22,7.80
2014,12,19,14,23,7.80
2014,12,19,14,24,7.80
2014,12,19,14,25,7.80
2014,12,19,14,26,7.80
2014,12,19,14,27,7.80
2014,12,19,14,28,7.80
2014,12,19,14,29,7.70
2014,12,19,14,30,7.70
2014,12,19,14,31,7.70
2014,12,19,14,32,7.70
2014,12,19,14,33,7.70
2014,12,19,14,34,7.70
2014,12,19,14,35,7.70
2014,12,19,14,36,7.70
2014,12,19,14,37,7.70
2014,12,19,14,38,7.80
2014,12,19,14,39,7.70
2014,12,19,14,40,7.70
2014,12,19,14,41,7.70
2014,12,19,14,42,7.70
2014,12,19,14,43,7.70
2014,12,19,14,44,7.70
2014,12,19,14,45,7.80
2014,12,19,14,46,7.80
2014,12,19,14,47,7.80
2014,12,19,14,48,7.80
2014,12,19,14,49,7.80
2014,12,19,14,50,7.80
2014,12,19,14,51,7.80
2014,12,19,14,52,7.80
2014,12,19,14,53,7.80
2014,12,19,14,54,7.80
2014,12,19,14,55,7.80
2014,12,19,14,56,7.80
2014,12,19,14,57,7.80
2014,12,19,14,58,7.80
2014,12,19,14,59,7.70
2014,12,19,15,00,7.70
2014,12,19,15,01,7.70
2014,12,19,15,02,7.70
2014,12,19,15,03,7.70
2014,12,19,15,04,7.70
2014,12,19,15,05,7.70
2014,12,19,15,06,7.70
2014,12,19,15,07,7.70
2014,12,19,15,08,7.70
2014,12,19,15,09,7.70
2014,12,19,15,10,7.70
2014,12,19,15,11,7.70
2014,12,19,15,12,7.70
2014,12,19,15,13,7.70
2014,12,19,15,14,7.70
2014,12,19,15,15,7.70
2014,12,19,15,16,7.70
2014,12,19,15,17,7.70
2014,12,19,15,18,7.70
2014,12,19,15,19,7.70
2014,12,19,15,20,7.70
2014,12,19,15,21,7.70
2014,12,19,15,22,7.70
2014,12,19,15,23,7.70
2014,12,19,15,24,7.70
2014,12,19,15,25,7.70
2014,12,19,15,26,7.70
2014,12,19,15,27,7.80
2014,12,19,15,28,7.80
2014,12,19,15,29,7.80
2014,12,19,15,30,7.80
2014,12,19,15,31,7.70
2014,12,19,15,32,7.70
2014,12,19,15,33,7.70
2014,12,19,15,34,7.70
2014,12,19,15,35,7.70
2014,12,19,15,36,7.70
2014,12,19,15,37,7.70
2014,12,19,15,38,7.70
2014,12,19,15,39,7.70
2014,12,19,15,40,7.70
2014,12,19,15,41,7.70
2014,12,19,15,42,7.70
2014,12,19,15,43,7.70
2014,12,19,15,44,7.70
2014,12,19,15,45,7.70
2014,12,19,15,46,7.70
2014,12,19,15,47,7.70
2014,12,19,15,48,7.70
2014,12,19,15,49,7.70
2014,12,19,15,50,7.70
2014,12,19,15,51,7.70
2014,12,19,15,52,7.70
2014,12,19,15,53,7.70
2014,12,19,15,54,7.70
2014,12,19,15,55,7.70
2014,12,19,15,56,7.70
2014,12,19,15,57,7.70
2014,12,19,15,58,7.70
2014,12,19,15,59,7.70
2014,12,19,16,00,7.70
2014,12,19,16,01,7.70
2014,12,19,16,02,7.70
2014,12,19,16,03,7.70
2014,12,19,16,04,7.70
2014,12,19,16,05,7.70
2014,12,19,16,06,7.70
2014,12,19,16,07,7.70
2014,12,19,16,08,7.70
2014,12,19,16,09,7.70
2014,12,19,16,10,7.70
2014,12,19,16,11,7.70
2014,12,19,16,12,7.70
2014,12,19,16,13,7.70
2014,12,19,16,14,7.70
2014,12,19,16,15,7.70
2014,12,19,16,16,7.70
2014,12,19,16,17,7.70
2014,12,19,16,18,7.70
2014,12,19,16,19,7.70
2014,12,19,16,20,7.70
2014,12,19,16,21,7.70
2014,12,19,16,22,7.80
2014,12,19,16,23,7.80
2014,12,19,16,24,7.70
2014,12,19,16,25,7.70
2014,12,19,16,26,7.70
2014,12,19,16,27,7.70
2014,12,19,16,28,7.70
2014,12,19,16,29,7.70
2014,12,19,16,30,7.70
2014,12,19,16,31,7.70
2014,12,19,16,32,7.70
2014,12,19,16,33,7.70
2014,12,19,16,34,7.70
2014,12,19,16,35,7.70
2014,12,19,16,36,7.70
2014,12,19,16,37,7.70
2014,12,19,16,38,7.70
2014,12,19,16,39,7.70
2014,12,19,16,40,7.70
2014,12,19,16,41,7.70
2014,12,19,16,42,7.70
2014,12,19,16,43,7.70
2014,12,19,16,44,7.70
2014,12,19,16,45,7.70
2014,12,19,16,46,7.70
2014,12,19,16,47,7.70
2014,12,19,16,48,7.70
2014,12,19,16,49,7.70
2014,12,19,16,50,7.70
2014,12,19,16,51,7.70
2014,12,19,16,52,7.70
2014,12,19,16,53,7.70
2014,12,19,16,54,7.70
2014,12,19,16,55,7.70
2014,12,19,16,56,7.70
2014,12,19,16,57,7.70
2014,12,19,16,58,7.70
2014,12,19,16,59,7.70
2014,12,19,17,00,7.70
2014,12,19,17,01,7.70
2014,12,19,17,02,7.70
2014,12,19,17,03,7.70
2014,12,19,17,04,7.70
2014,12,19,17,05,7.80
2014,12,19,17,06,7.80
2014,12,19,17,07,7.80
2014,12,19,17,08,7.80
2014,12,19,17,09,7.80
2014,12,19,17,10,7.80
2014,12,19,17,11,7.80
2014,12,19,17,12,7.80
2014,12,19,17,13,7.80
2014,12,19,17,14,7.80
2014,12,19,17,15,7.80
2014,12,19,17,16,7.80
2014,12,19,17,17,7.80
2014,12,19,17,18,7.80
2014,12,19,17,19,7.80
2014,12,19,17,20,7.80
2014,12,19,17,21,7.80
2014,12,19,17,22,7.80
2014,12,19,17,23,7.80
2014,12,19,17,24,7.80
2014,12,19,17,25,7.80
2014,12,19,17,26,7.80
2014,12,19,17,27,7.80
2014,12,19,17,28,7.80
2014,12,19,17,29,7.80
2014,12,19,17,30,7.80
2014,12,19,17,31,7.80
2014,12,19,17,32,7.80
2014,12,19,17,33,7.80
2014,12,19,17,34,7.80
2014,12,19,17,35,7.80
2014,12,19,17,36,7.80
2014,12,19,17,37,7.80
2014,12,19,17,38,7.80
2014,12,19,17,39,7.70
2014,12,19,17,40,7.80
2014,12,19,17,41,7.80
2014,12,19,17,42,7.70
2014,12,19,17,43,7.70
2014,12,19,17,44,7.70
2014,12,19,17,45,7.80
2014,12,19,17,46,7.80
2014,12,19,17,47,7.80
2014,12,19,17,48,7.80
2014,12,19,17,49,7.80
2014,12,19,17,50,7.80
2014,12,19,17,51,7.80
2014,12,19,17,52,7.80
2014,12,19,17,53,7.80
2014,12,19,17,54,7.80
2014,12,19,17,55,7.80
2014,12,19,17,56,7.80
2014,12,19,17,57,7.80
2014,12,19,17,58,7.80
2014,12,19,17,59,7.80
2014,12,19,18,00,7.80
2014,12,19,18,01,7.80
2014,12,19,18,02,7.80
2014,12,19,18,03,7.80
2014,12,19,18,04,7.80
2014,12,19,18,05,7.80
2014,12,19,18,06,7.80